Time,TemperatureF,DewpointF,PressureIn,WindDirection,WindDirectionDegrees,WindSpeedMPH,WindSpeedGustMPH,Humidity,HourlyPrecipIn,Conditions,Clouds,dailyrainin,SoftwareType,DateUTC
2013-06-29 00:01:00,72.5,67.7,29.55,South,180,7.6,7.6,85,0.00,,,0.00,VWS V13.00,2013-06-29 04:01:00,
2013-06-29 00:02:00,72.3,67.9,29.55,South,180,7.1,7.6,86,0.00,,,0.00,VWS V13.00,2013-06-29 04:02:00,
2013-06-29 00:07:00,72.1,67.7,29.55,SSE,158,4.4,7.6,86,0.00,,,0.00,VWS V13.00,2013-06-29 04:07:00,
2013-06-29 00:12:00,71.7,67.3,29.55,South,180,5.5,7.8,86,0.00,,,0.00,VWS V13.00,2013-06-29 04:12:00,
2013-06-29 00:18:00,71.4,67.0,29.54,SE,135,5.1,7.8,86,0.00,,,0.00,VWS V13.00,2013-06-29 04:18:00,
2013-06-29 00:23:00,71.4,67.0,29.54,SSE,158,10.9,10.9,86,0.00,,,0.00,VWS V13.00,2013-06-29 04:23:00,
2013-06-29 00:28:00,71.0,66.9,29.53,SE,135,7.1,10.9,87,0.00,,,0.00,VWS V13.00,2013-06-29 04:28:00,
2013-06-29 00:33:00,70.7,66.7,29.53,South,180,12.3,12.3,87,0.00,,,0.00,VWS V13.00,2013-06-29 04:33:00,
2013-06-29 00:38:00,70.5,66.4,29.53,ESE,112,6.9,12.3,87,0.00,,,0.00,VWS V13.00,2013-06-29 04:38:00,
2013-06-29 00:43:00,70.3,66.6,29.53,SSE,158,8.7,9.1,88,0.00,,,0.00,VWS V13.00,2013-06-29 04:43:00,
2013-06-29 00:48:00,70.3,66.9,29.54,SSE,158,9.3,9.3,89,0.00,,,0.00,VWS V13.00,2013-06-29 04:48:00,
2013-06-29 00:53:00,70.3,66.9,29.54,SSE,158,9.8,9.8,89,0.00,,,0.00,VWS V13.00,2013-06-29 04:53:00,
2013-06-29 00:58:00,70.3,67.2,29.54,SE,135,8.5,9.8,90,0.00,,,0.00,VWS V13.00,2013-06-29 04:58:00,
2013-06-29 01:03:00,70.3,67.2,29.54,SE,135,4.9,4.9,90,0.00,,,0.00,VWS V13.00,2013-06-29 05:03:00,
2013-06-29 01:08:00,70.3,67.2,29.54,SSE,158,6.9,8.9,90,0.00,,,0.00,VWS V13.00,2013-06-29 05:08:00,
2013-06-29 01:13:00,70.3,67.2,29.54,SSE,158,8.2,8.9,90,0.00,,,0.00,VWS V13.00,2013-06-29 05:13:00,
2013-06-29 01:18:00,70.5,67.4,29.54,SSE,158,6.9,11.4,90,0.00,,,0.00,VWS V13.00,2013-06-29 05:18:00,
2013-06-29 01:23:00,70.8,67.7,29.54,SSE,158,5.8,7.3,90,0.00,,,0.00,VWS V13.00,2013-06-29 05:23:00,
2013-06-29 01:28:00,70.8,67.7,29.53,SSE,158,14.0,14.0,90,0.00,,,0.00,VWS V13.00,2013-06-29 05:28:00,
2013-06-29 01:33:00,70.8,67.7,29.54,SSE,158,7.3,14.0,90,0.00,,,0.00,VWS V13.00,2013-06-29 05:33:00,
2013-06-29 01:38:00,70.5,67.1,29.53,South,180,14.5,14.5,89,0.00,,,0.00,VWS V13.00,2013-06-29 05:38:00,
2013-06-29 01:43:00,70.5,67.4,29.53,South,180,9.6,10.7,90,0.00,,,0.00,VWS V13.00,2013-06-29 05:43:00,
2013-06-29 01:48:00,70.3,67.2,29.53,South,180,8.7,14.7,90,0.00,,,0.00,VWS V13.00,2013-06-29 05:48:00,
2013-06-29 01:53:00,70.3,67.2,29.53,SSE,158,3.1,14.7,90,0.00,,,0.00,VWS V13.00,2013-06-29 05:53:00,
2013-06-29 01:58:00,70.3,67.2,29.52,South,180,6.0,14.7,90,0.00,,,0.00,VWS V13.00,2013-06-29 05:58:00,
2013-06-29 02:03:00,70.3,67.2,29.52,SSE,158,7.3,10.0,90,0.00,,,0.00,VWS V13.00,2013-06-29 06:03:00,
2013-06-29 02:08:00,69.6,66.2,29.53,ESE,112,4.2,10.7,89,0.00,,,0.00,VWS V13.00,2013-06-29 06:08:00,
2013-06-29 02:13:00,69.0,65.6,29.53,ESE,112,7.6,10.7,89,0.00,,,0.00,VWS V13.00,2013-06-29 06:13:00,
2013-06-29 02:18:00,68.7,65.3,29.53,SSE,158,5.1,10.7,89,0.00,,,0.00,VWS V13.00,2013-06-29 06:18:00,
2013-06-29 02:23:00,68.5,65.5,29.53,SE,135,5.8,5.8,90,0.00,,,0.00,VWS V13.00,2013-06-29 06:23:00,
2013-06-29 02:28:00,68.5,65.5,29.54,SSE,158,6.4,9.3,90,0.00,,,0.00,VWS V13.00,2013-06-29 06:28:00,
2013-06-29 02:33:00,68.7,65.7,29.54,SSE,158,10.9,10.9,90,0.00,,,0.00,VWS V13.00,2013-06-29 06:33:00,
2013-06-29 02:38:00,68.7,65.7,29.54,SSE,158,12.3,12.3,90,0.00,,,0.00,VWS V13.00,2013-06-29 06:38:00,
2013-06-29 02:43:00,68.9,65.8,29.54,SSE,158,11.8,11.8,90,0.00,,,0.00,VWS V13.00,2013-06-29 06:43:00,
2013-06-29 02:48:00,68.9,65.8,29.54,SSE,158,6.0,11.8,90,0.00,,,0.00,VWS V13.00,2013-06-29 06:48:00,
2013-06-29 02:53:00,69.0,65.6,29.54,South,180,7.3,11.8,89,0.00,,,0.00,VWS V13.00,2013-06-29 06:53:00,
2013-06-29 02:58:00,69.0,65.6,29.55,South,180,2.9,11.8,89,0.00,,,0.00,VWS V13.00,2013-06-29 06:58:00,
2013-06-29 03:03:00,69.2,65.8,29.54,SSE,158,3.5,3.5,89,0.00,,,0.00,VWS V13.00,2013-06-29 07:03:00,
2013-06-29 03:04:00,69.2,65.8,29.54,SSE,158,3.5,3.5,89,0.00,,,0.00,VWS V13.00,2013-06-29 07:04:00,
2013-06-29 03:09:00,69.4,66.0,29.54,West,270,0.6,3.5,89,0.00,,,0.00,VWS V13.00,2013-06-29 07:09:00,
2013-06-29 03:14:00,69.6,66.2,29.54,South,180,1.3,3.5,89,0.00,,,0.00,VWS V13.00,2013-06-29 07:14:00,
2013-06-29 03:19:00,69.8,66.7,29.54,SSE,158,0.0,3.5,90,0.00,,,0.00,VWS V13.00,2013-06-29 07:19:00,
2013-06-29 03:24:00,70.1,67.0,29.54,SSE,158,1.7,1.7,90,0.00,,,0.00,VWS V13.00,2013-06-29 07:24:00,
2013-06-29 03:29:00,70.1,66.7,29.54,SE,135,2.2,2.4,89,0.00,,,0.00,VWS V13.00,2013-06-29 07:29:00,
2013-06-29 03:34:00,69.6,66.2,29.55,South,180,2.0,2.4,89,0.00,,,0.00,VWS V13.00,2013-06-29 07:34:00,
2013-06-29 03:39:00,69.4,66.0,29.55,SSE,158,1.1,2.4,89,0.00,,,0.00,VWS V13.00,2013-06-29 07:39:00,
2013-06-29 03:44:00,68.7,65.0,29.56,SE,135,4.6,4.6,88,0.00,,,0.00,VWS V13.00,2013-06-29 07:44:00,
2013-06-29 03:49:00,68.3,64.6,29.56,South,180,6.4,6.4,88,0.00,,,0.00,VWS V13.00,2013-06-29 07:49:00,
2013-06-29 03:54:00,68.1,64.7,29.56,SSE,158,4.0,6.4,89,0.00,,,0.00,VWS V13.00,2013-06-29 07:54:00,
2013-06-29 03:59:00,68.1,64.7,29.57,South,180,5.3,6.4,89,0.00,,,0.00,VWS V13.00,2013-06-29 07:59:00,
2013-06-29 04:04:00,68.1,64.7,29.57,South,180,6.0,6.0,89,0.00,,,0.00,VWS V13.00,2013-06-29 08:04:00,
2013-06-29 04:09:00,68.3,64.9,29.57,SSE,158,6.0,6.0,89,0.00,,,0.00,VWS V13.00,2013-06-29 08:09:00,
2013-06-29 04:14:00,68.5,65.1,29.57,South,180,8.9,11.6,89,0.00,,,0.00,VWS V13.00,2013-06-29 08:14:00,
2013-06-29 04:19:00,68.7,65.3,29.57,South,180,9.1,11.6,89,0.00,,,0.00,VWS V13.00,2013-06-29 08:19:00,
2013-06-29 04:24:00,68.7,65.3,29.57,South,180,9.3,9.3,89,0.00,,,0.00,VWS V13.00,2013-06-29 08:24:00,
2013-06-29 04:29:00,68.7,65.3,29.58,SE,135,4.9,9.3,89,0.00,,,0.00,VWS V13.00,2013-06-29 08:29:00,
2013-06-29 04:34:00,68.7,65.3,29.58,South,180,8.5,9.3,89,0.00,,,0.00,VWS V13.00,2013-06-29 08:34:00,
2013-06-29 04:39:00,68.7,65.3,29.58,SSE,158,9.1,9.3,89,0.00,,,0.00,VWS V13.00,2013-06-29 08:39:00,
2013-06-29 04:44:00,69.0,65.6,29.57,SSE,158,9.1,9.1,89,0.00,,,0.00,VWS V13.00,2013-06-29 08:44:00,
2013-06-29 04:49:00,69.0,65.6,29.57,SE,135,9.3,15.8,89,0.00,,,0.00,VWS V13.00,2013-06-29 08:49:00,
2013-06-29 04:54:00,69.4,66.0,29.59,SSE,158,6.7,15.8,89,0.00,,,0.00,VWS V13.00,2013-06-29 08:54:00,
2013-06-29 04:59:00,69.6,65.9,29.59,SSE,158,11.6,65.0,88,0.00,,,0.00,VWS V13.00,2013-06-29 08:59:00,
2013-06-29 05:04:00,69.8,66.1,29.59,SE,135,7.6,11.6,88,0.00,,,0.00,VWS V13.00,2013-06-29 09:04:00,
2013-06-29 05:09:00,69.6,65.9,29.59,SSE,158,12.9,12.9,88,0.00,,,0.00,VWS V13.00,2013-06-29 09:09:00,
2013-06-29 05:14:00,69.8,66.1,29.59,SSE,158,12.0,12.9,88,0.00,,,0.00,VWS V13.00,2013-06-29 09:14:00,
2013-06-29 05:19:00,69.8,65.8,29.59,SSW,202,8.2,12.9,87,0.00,,,0.00,VWS V13.00,2013-06-29 09:19:00,
2013-06-29 05:24:00,69.6,65.6,29.59,SSE,158,11.1,11.8,87,0.00,,,0.00,VWS V13.00,2013-06-29 09:24:00,
2013-06-29 05:29:00,69.9,65.9,29.59,SSE,158,11.8,13.6,87,0.00,,,0.00,VWS V13.00,2013-06-29 09:29:00,
2013-06-29 05:34:00,70.3,65.9,29.59,SSE,158,13.4,13.6,86,0.00,,,0.00,VWS V13.00,2013-06-29 09:34:00,
2013-06-29 05:39:00,70.7,66.3,29.60,SSE,158,11.8,13.6,86,0.00,,,0.00,VWS V13.00,2013-06-29 09:39:00,
2013-06-29 05:44:00,71.0,66.6,29.60,South,180,15.8,15.8,86,0.00,,,0.00,VWS V13.00,2013-06-29 09:44:00,
2013-06-29 05:49:00,70.7,66.3,29.60,South,180,13.6,18.1,86,0.00,,,0.00,VWS V13.00,2013-06-29 09:49:00,
2013-06-29 05:54:00,70.3,66.2,29.61,SSE,158,12.0,18.1,87,0.00,,,0.00,VWS V13.00,2013-06-29 09:54:00,
2013-06-29 05:59:00,70.1,66.4,29.61,SE,135,8.5,18.1,88,0.00,,,0.00,VWS V13.00,2013-06-29 09:59:00,
2013-06-29 06:04:00,69.9,66.2,29.61,SE,135,8.5,8.5,88,0.00,,,0.00,VWS V13.00,2013-06-29 10:04:00,
2013-06-29 06:09:00,69.6,66.2,29.61,SSE,158,12.0,12.0,89,0.00,,,0.00,VWS V13.00,2013-06-29 10:09:00,
2013-06-29 06:15:00,69.8,66.7,29.62,South,180,14.5,14.5,90,0.02,,,0.02,VWS V13.00,2013-06-29 10:15:00,
2013-06-29 06:20:00,69.6,66.5,29.61,SSE,158,12.7,14.5,90,0.02,,,0.02,VWS V13.00,2013-06-29 10:20:00,
2013-06-29 06:25:00,69.8,66.7,29.61,SSE,158,15.2,15.2,90,0.02,,,0.02,VWS V13.00,2013-06-29 10:25:00,
2013-06-29 06:30:00,70.1,67.0,29.62,SSE,158,5.5,15.2,90,0.02,,,0.02,VWS V13.00,2013-06-29 10:30:00,
2013-06-29 06:35:00,70.3,66.9,29.62,WNW,292,3.5,15.2,89,0.02,,,0.02,VWS V13.00,2013-06-29 10:35:00,
2013-06-29 06:40:00,70.5,66.8,29.62,West,270,1.7,15.2,88,0.04,,,0.04,VWS V13.00,2013-06-29 10:40:00,
2013-06-29 06:45:00,70.7,67.0,29.62,SSE,158,7.6,7.6,88,0.04,,,0.04,VWS V13.00,2013-06-29 10:45:00,
2013-06-29 06:50:00,70.8,67.1,29.61,SE,135,2.2,7.6,88,0.04,,,0.04,VWS V13.00,2013-06-29 10:50:00,
2013-06-29 06:55:00,71.0,67.3,29.60,South,180,0.0,7.6,88,0.04,,,0.04,VWS V13.00,2013-06-29 10:55:00,
2013-06-29 07:00:00,71.2,67.1,29.61,SSE,158,2.9,7.6,87,0.04,,,0.04,VWS V13.00,2013-06-29 11:00:00,
2013-06-29 07:05:00,71.4,67.3,29.60,South,180,2.0,2.9,87,0.04,,,0.04,VWS V13.00,2013-06-29 11:05:00,
2013-06-29 07:10:00,71.7,67.6,29.61,West,270,0.0,2.9,87,0.02,,,0.04,VWS V13.00,2013-06-29 11:10:00,
2013-06-29 07:15:00,71.9,67.8,29.61,South,180,3.8,3.8,87,0.02,,,0.04,VWS V13.00,2013-06-29 11:15:00,
2013-06-29 07:20:00,72.1,68.3,29.61,SSE,158,2.4,2.4,88,0.02,,,0.04,VWS V13.00,2013-06-29 11:20:00,
2013-06-29 07:25:00,72.3,68.6,29.60,SSW,202,2.4,4.0,88,0.02,,,0.04,VWS V13.00,2013-06-29 11:25:00,
2013-06-29 07:30:00,72.3,68.6,29.61,NW,315,0.0,4.0,88,0.02,,,0.04,VWS V13.00,2013-06-29 11:30:00,
2013-06-29 07:35:00,72.3,68.6,29.61,SW,225,2.2,4.0,88,0.00,,,0.04,VWS V13.00,2013-06-29 11:35:00,
2013-06-29 07:40:00,72.3,68.6,29.61,SSE,158,3.1,3.1,88,0.00,,,0.04,VWS V13.00,2013-06-29 11:40:00,
2013-06-29 07:45:00,72.3,68.6,29.61,South,180,3.1,3.1,88,0.00,,,0.04,VWS V13.00,2013-06-29 11:45:00,
2013-06-29 07:50:00,72.3,68.6,29.61,South,180,5.3,8.0,88,0.00,,,0.04,VWS V13.00,2013-06-29 11:50:00,
2013-06-29 07:55:00,72.5,69.1,29.61,ESE,112,4.4,8.0,89,0.00,,,0.04,VWS V13.00,2013-06-29 11:55:00,
2013-06-29 08:00:00,72.6,69.2,29.61,South,180,2.0,2.0,89,0.00,,,0.04,VWS V13.00,2013-06-29 12:00:00,
2013-06-29 08:05:00,73.0,69.6,29.62,SE,135,0.0,2.0,89,0.00,,,0.04,VWS V13.00,2013-06-29 12:05:00,
2013-06-29 08:10:00,73.4,69.6,29.62,South,180,6.7,6.7,88,0.00,,,0.04,VWS V13.00,2013-06-29 12:10:00,
2013-06-29 08:15:00,73.5,69.7,29.62,SE,135,1.1,6.7,88,0.00,,,0.04,VWS V13.00,2013-06-29 12:15:00,
2013-06-29 08:20:00,73.7,69.9,29.62,SSW,202,4.4,4.4,88,0.00,,,0.04,VWS V13.00,2013-06-29 12:20:00,
2013-06-29 08:25:00,73.9,69.8,29.62,ESE,112,4.4,6.7,87,0.00,,,0.04,VWS V13.00,2013-06-29 12:25:00,
2013-06-29 08:30:00,74.1,70.0,29.62,South,180,1.7,6.7,87,0.00,,,0.04,VWS V13.00,2013-06-29 12:30:00,
2013-06-29 08:35:00,74.1,69.7,29.63,SSE,158,5.1,7.3,86,0.00,,,0.04,VWS V13.00,2013-06-29 12:35:00,
2013-06-29 08:40:00,74.1,69.3,29.63,South,180,7.3,7.3,85,0.00,,,0.04,VWS V13.00,2013-06-29 12:40:00,
2013-06-29 08:45:00,73.9,69.1,29.62,SSE,158,3.1,7.3,85,0.00,,,0.04,VWS V13.00,2013-06-29 12:45:00,
2013-06-29 08:50:00,73.9,69.1,29.62,SSE,158,4.2,7.3,85,0.00,,,0.04,VWS V13.00,2013-06-29 12:50:00,
2013-06-29 08:55:00,73.5,68.7,29.62,SE,135,3.1,7.3,85,0.00,,,0.04,VWS V13.00,2013-06-29 12:55:00,
2013-06-29 09:00:00,72.8,67.7,29.63,SSE,158,0.0,0.0,84,0.00,,,0.04,VWS V13.00,2013-06-29 13:00:00,
2013-06-29 09:05:00,72.5,67.7,29.62,SE,135,0.0,0.0,85,0.00,,,0.04,VWS V13.00,2013-06-29 13:05:00,
2013-06-29 09:10:00,72.3,67.5,29.62,SSE,158,0.0,3.8,85,0.00,,,0.04,VWS V13.00,2013-06-29 13:10:00,
2013-06-29 09:15:00,72.3,67.9,29.62,SSE,158,3.3,4.4,86,0.00,,,0.04,VWS V13.00,2013-06-29 13:15:00,
2013-06-29 09:20:00,72.3,67.9,29.62,SSE,158,8.2,8.2,86,0.00,,,0.04,VWS V13.00,2013-06-29 13:20:00,
2013-06-29 09:25:00,72.3,67.9,29.63,SSE,158,8.0,8.2,86,0.00,,,0.04,VWS V13.00,2013-06-29 13:25:00,
2013-06-29 09:30:00,72.1,67.7,29.63,South,180,3.8,8.2,86,0.00,,,0.04,VWS V13.00,2013-06-29 13:30:00,
2013-06-29 09:35:00,72.1,68.0,29.63,South,180,6.0,8.2,87,0.00,,,0.04,VWS V13.00,2013-06-29 13:35:00,
2013-06-29 09:40:00,72.1,68.0,29.63,SSE,158,5.8,5.8,87,0.00,,,0.04,VWS V13.00,2013-06-29 13:40:00,
2013-06-29 09:45:00,72.1,68.0,29.63,SSE,158,8.2,8.5,87,0.00,,,0.04,VWS V13.00,2013-06-29 13:45:00,
2013-06-29 09:50:00,71.9,67.8,29.64,SE,135,6.2,8.7,87,0.00,,,0.04,VWS V13.00,2013-06-29 13:50:00,
2013-06-29 09:55:00,72.1,68.0,29.64,SE,135,6.2,8.7,87,0.00,,,0.04,VWS V13.00,2013-06-29 13:55:00,
2013-06-29 10:00:00,71.9,67.8,29.64,ESE,112,4.6,4.6,87,0.00,,,0.04,VWS V13.00,2013-06-29 14:00:00,
2013-06-29 10:05:00,71.7,67.6,29.64,SE,135,5.3,6.9,87,0.00,,,0.04,VWS V13.00,2013-06-29 14:05:00,
2013-06-29 10:10:00,71.9,67.8,29.64,South,180,7.3,7.3,87,0.00,,,0.04,VWS V13.00,2013-06-29 14:10:00,
2013-06-29 10:15:00,71.7,67.6,29.64,SSE,158,6.4,7.8,87,0.00,,,0.04,VWS V13.00,2013-06-29 14:15:00,
2013-06-29 10:20:00,71.7,67.6,29.64,ESE,112,4.0,4.0,87,0.00,,,0.04,VWS V13.00,2013-06-29 14:20:00,
2013-06-29 10:25:00,72.1,68.3,29.64,SSE,158,10.0,10.0,88,0.00,,,0.04,VWS V13.00,2013-06-29 14:25:00,
2013-06-29 10:30:00,72.3,68.2,29.64,South,180,8.9,10.0,87,0.00,,,0.04,VWS V13.00,2013-06-29 14:30:00,
2013-06-29 10:36:00,72.8,68.7,29.64,SSE,158,4.4,10.0,87,0.00,,,0.04,VWS V13.00,2013-06-29 14:36:00,
2013-06-29 10:41:00,73.2,68.8,29.64,SSE,158,6.4,6.4,86,0.00,,,0.04,VWS V13.00,2013-06-29 14:41:00,
2013-06-29 10:46:00,73.7,68.9,29.65,SSE,158,12.7,12.7,85,0.00,,,0.04,VWS V13.00,2013-06-29 14:46:00,
2013-06-29 10:51:00,73.5,68.7,29.64,ESE,112,5.3,14.7,85,0.00,,,0.04,VWS V13.00,2013-06-29 14:51:00,
2013-06-29 10:56:00,73.9,68.8,29.64,South,180,9.3,14.7,84,0.00,,,0.04,VWS V13.00,2013-06-29 14:56:00,
2013-06-29 11:01:00,74.4,68.9,29.65,SE,135,3.3,3.3,83,0.00,,,0.04,VWS V13.00,2013-06-29 15:01:00,
2013-06-29 11:06:00,74.4,68.6,29.65,South,180,7.8,9.1,82,0.00,,,0.04,VWS V13.00,2013-06-29 15:06:00,
2013-06-29 11:11:00,74.1,68.3,29.64,SE,135,7.6,12.3,82,0.00,,,0.04,VWS V13.00,2013-06-29 15:11:00,
2013-06-29 11:16:00,74.1,68.3,29.64,SSE,158,7.6,12.3,82,0.00,,,0.04,VWS V13.00,2013-06-29 15:16:00,
2013-06-29 11:21:00,74.6,68.8,29.64,SSE,158,6.7,6.7,82,0.00,,,0.04,VWS V13.00,2013-06-29 15:21:00,
2013-06-29 11:26:00,75.0,68.8,29.65,South,180,7.6,7.6,81,0.00,,,0.04,VWS V13.00,2013-06-29 15:26:00,
2013-06-29 11:31:00,75.3,68.7,29.64,SE,135,6.4,10.5,80,0.00,,,0.04,VWS V13.00,2013-06-29 15:31:00,
2013-06-29 11:36:00,75.5,68.5,29.65,SSE,158,10.2,10.5,79,0.00,,,0.04,VWS V13.00,2013-06-29 15:36:00,
2013-06-29 11:41:00,75.5,68.9,29.65,East,90,8.9,8.9,80,0.00,,,0.04,VWS V13.00,2013-06-29 15:41:00,
2013-06-29 11:46:00,75.7,68.7,29.65,SSE,158,9.6,11.6,79,0.00,,,0.04,VWS V13.00,2013-06-29 15:46:00,
2013-06-29 11:51:00,75.7,68.7,29.64,SE,135,11.4,11.6,79,0.00,,,0.04,VWS V13.00,2013-06-29 15:51:00,
2013-06-29 11:56:00,75.9,68.9,29.64,South,180,8.5,18.5,79,0.00,,,0.04,VWS V13.00,2013-06-29 15:56:00,
2013-06-29 12:01:00,75.9,68.9,29.64,South,180,11.1,12.0,79,0.00,,,0.04,VWS V13.00,2013-06-29 16:01:00,
2013-06-29 12:06:00,75.9,68.9,29.64,SE,135,8.0,12.9,79,0.00,,,0.04,VWS V13.00,2013-06-29 16:06:00,
2013-06-29 12:11:00,75.9,68.9,29.64,South,180,8.2,12.9,79,0.00,,,0.04,VWS V13.00,2013-06-29 16:11:00,
2013-06-29 12:16:00,75.9,68.9,29.64,South,180,16.1,19.0,79,0.00,,,0.04,VWS V13.00,2013-06-29 16:16:00,
2013-06-29 12:21:00,75.7,68.7,29.64,South,180,14.9,14.9,79,0.02,,,0.06,VWS V13.00,2013-06-29 16:21:00,
2013-06-29 12:26:00,75.5,68.5,29.64,SSE,158,14.5,14.9,79,0.02,,,0.06,VWS V13.00,2013-06-29 16:26:00,
2013-06-29 12:31:00,75.3,68.3,29.64,SE,135,6.0,14.9,79,0.02,,,0.06,VWS V13.00,2013-06-29 16:31:00,
2013-06-29 12:36:00,75.3,68.3,29.64,SSE,158,8.9,14.9,79,0.02,,,0.06,VWS V13.00,2013-06-29 16:36:00,
2013-06-29 12:41:00,75.5,68.5,29.64,SE,135,9.1,9.1,79,0.02,,,0.06,VWS V13.00,2013-06-29 16:41:00,
2013-06-29 12:46:00,75.5,68.2,29.64,SE,135,9.6,10.2,78,0.02,,,0.06,VWS V13.00,2013-06-29 16:46:00,
2013-06-29 12:51:00,75.7,68.4,29.64,South,180,10.2,10.2,78,0.02,,,0.06,VWS V13.00,2013-06-29 16:51:00,
2013-06-29 12:56:00,75.9,68.6,29.64,SSE,158,7.6,14.5,78,0.02,,,0.06,VWS V13.00,2013-06-29 16:56:00,
2013-06-29 13:01:00,75.9,68.6,29.64,SE,135,8.5,10.7,78,0.02,,,0.06,VWS V13.00,2013-06-29 17:01:00,
2013-06-29 13:06:00,75.9,68.6,29.64,ESE,112,4.6,10.9,78,0.02,,,0.06,VWS V13.00,2013-06-29 17:06:00,
2013-06-29 13:11:00,76.1,68.8,29.64,SSE,158,7.1,10.9,78,0.02,,,0.06,VWS V13.00,2013-06-29 17:11:00,
2013-06-29 13:16:00,76.2,68.8,29.65,South,180,5.8,10.9,78,0.02,,,0.06,VWS V13.00,2013-06-29 17:16:00,
2013-06-29 13:21:00,76.6,68.9,29.64,SE,135,8.7,8.7,77,0.00,,,0.06,VWS V13.00,2013-06-29 17:21:00,
2013-06-29 13:26:00,76.6,68.9,29.64,SSE,158,10.7,10.7,77,0.00,,,0.06,VWS V13.00,2013-06-29 17:26:00,
2013-06-29 13:31:00,76.4,68.7,29.64,SSE,158,13.8,17.4,77,0.00,,,0.06,VWS V13.00,2013-06-29 17:31:00,
2013-06-29 13:36:00,76.2,68.5,29.65,SSE,158,9.6,17.4,77,0.00,,,0.06,VWS V13.00,2013-06-29 17:36:00,
2013-06-29 13:41:00,76.2,68.5,29.64,South,180,6.7,6.7,77,0.00,,,0.06,VWS V13.00,2013-06-29 17:41:00,
2013-06-29 13:46:00,76.4,68.7,29.64,SSE,158,8.0,8.0,77,0.00,,,0.06,VWS V13.00,2013-06-29 17:46:00,
2013-06-29 13:51:00,76.8,69.1,29.64,South,180,9.1,9.1,77,0.00,,,0.06,VWS V13.00,2013-06-29 17:51:00,
2013-06-29 13:56:00,77.0,69.2,29.64,SSE,158,9.1,11.4,77,0.00,,,0.06,VWS V13.00,2013-06-29 17:56:00,
2013-06-29 14:01:00,76.8,69.1,29.65,SSE,158,9.6,9.6,77,0.00,,,0.06,VWS V13.00,2013-06-29 18:01:00,
2013-06-29 14:06:00,76.8,69.1,29.64,SE,135,10.2,10.9,77,0.00,,,0.06,VWS V13.00,2013-06-29 18:06:00,
2013-06-29 14:11:00,76.8,69.1,29.64,SSE,158,6.4,10.9,77,0.00,,,0.06,VWS V13.00,2013-06-29 18:11:00,
2013-06-29 14:16:00,77.1,69.3,29.64,South,180,6.9,10.9,77,0.00,,,0.06,VWS V13.00,2013-06-29 18:16:00,
2013-06-29 14:21:00,77.1,69.3,29.64,South,180,7.1,7.1,77,0.00,,,0.06,VWS V13.00,2013-06-29 18:21:00,
2013-06-29 14:26:00,77.3,69.2,29.64,SSE,158,5.8,7.1,76,0.00,,,0.06,VWS V13.00,2013-06-29 18:26:00,
2013-06-29 14:31:00,77.5,69.3,29.64,SE,135,11.1,11.1,76,0.00,,,0.06,VWS V13.00,2013-06-29 18:31:00,
2013-06-29 14:36:00,77.3,69.2,29.64,SSW,202,14.0,14.0,76,0.00,,,0.06,VWS V13.00,2013-06-29 18:36:00,
2013-06-29 14:41:00,77.3,69.2,29.64,South,180,10.2,10.9,76,0.00,,,0.06,VWS V13.00,2013-06-29 18:41:00,
2013-06-29 14:46:00,77.1,69.0,29.65,ESE,112,11.8,11.8,76,0.00,,,0.06,VWS V13.00,2013-06-29 18:46:00,
2013-06-29 14:51:00,77.1,69.3,29.64,South,180,4.0,11.8,77,0.00,,,0.06,VWS V13.00,2013-06-29 18:51:00,
2013-06-29 14:56:00,76.8,69.1,29.64,SE,135,11.4,11.8,77,0.00,,,0.06,VWS V13.00,2013-06-29 18:56:00,
2013-06-29 15:01:00,76.4,68.7,29.64,SSE,158,6.2,11.6,77,0.00,,,0.06,VWS V13.00,2013-06-29 19:01:00,
2013-06-29 15:07:00,76.2,68.8,29.65,SSE,158,10.7,11.6,78,0.00,,,0.06,VWS V13.00,2013-06-29 19:07:00,
2013-06-29 15:12:00,76.1,68.8,29.65,SE,135,9.3,11.6,78,0.00,,,0.06,VWS V13.00,2013-06-29 19:12:00,
2013-06-29 15:17:00,75.9,68.6,29.65,ESE,112,9.6,11.6,78,0.00,,,0.06,VWS V13.00,2013-06-29 19:17:00,
2013-06-29 15:22:00,75.9,68.9,29.65,South,180,10.0,10.0,79,0.00,,,0.06,VWS V13.00,2013-06-29 19:22:00,
2013-06-29 15:27:00,76.1,69.1,29.66,ESE,112,7.6,10.0,79,0.00,,,0.06,VWS V13.00,2013-06-29 19:27:00,
2013-06-29 15:32:00,76.1,68.8,29.66,SSE,158,10.7,10.7,78,0.00,,,0.06,VWS V13.00,2013-06-29 19:32:00,
2013-06-29 15:37:00,75.9,68.9,29.65,SSE,158,9.1,10.9,79,0.00,,,0.06,VWS V13.00,2013-06-29 19:37:00,
2013-06-29 15:42:00,75.9,68.9,29.66,SSE,158,9.6,10.5,79,0.00,,,0.06,VWS V13.00,2013-06-29 19:42:00,
2013-06-29 15:47:00,75.9,68.9,29.66,SSE,158,10.9,10.9,79,0.00,,,0.06,VWS V13.00,2013-06-29 19:47:00,
2013-06-29 15:52:00,75.9,68.9,29.66,South,180,7.1,10.9,79,0.00,,,0.06,VWS V13.00,2013-06-29 19:52:00,
2013-06-29 15:57:00,76.2,69.2,29.65,SE,135,9.6,12.7,79,0.00,,,0.06,VWS V13.00,2013-06-29 19:57:00,
2013-06-29 16:02:00,76.4,69.4,29.66,South,180,7.1,7.1,79,0.00,,,0.06,VWS V13.00,2013-06-29 20:02:00,
2013-06-29 16:07:00,76.6,69.2,29.66,South,180,8.5,14.3,78,0.00,,,0.06,VWS V13.00,2013-06-29 20:07:00,
2013-06-29 16:12:00,76.4,69.4,29.66,ESE,112,8.2,14.3,79,0.00,,,0.06,VWS V13.00,2013-06-29 20:12:00,
2013-06-29 16:17:00,76.2,69.2,29.66,SSE,158,8.9,14.3,79,0.00,,,0.06,VWS V13.00,2013-06-29 20:17:00,
2013-06-29 16:22:00,76.2,69.2,29.66,SSE,158,9.3,9.3,79,0.00,,,0.06,VWS V13.00,2013-06-29 20:22:00,
2013-06-29 16:27:00,76.2,69.2,29.66,SSE,158,8.0,9.3,79,0.00,,,0.06,VWS V13.00,2013-06-29 20:27:00,
2013-06-29 16:32:00,76.1,69.1,29.65,ESE,112,10.2,12.3,79,0.00,,,0.06,VWS V13.00,2013-06-29 20:32:00,
2013-06-29 16:37:00,75.9,69.3,29.66,SE,135,4.6,12.3,80,0.00,,,0.06,VWS V13.00,2013-06-29 20:37:00,
2013-06-29 16:42:00,75.9,68.9,29.67,SSW,202,7.6,8.9,79,0.00,,,0.06,VWS V13.00,2013-06-29 20:42:00,
2013-06-29 16:47:00,75.7,69.1,29.65,ESE,112,11.8,11.8,80,0.00,,,0.06,VWS V13.00,2013-06-29 20:47:00,
2013-06-29 16:52:00,75.3,69.1,29.66,SSE,158,9.1,11.8,81,0.00,,,0.06,VWS V13.00,2013-06-29 20:52:00,
2013-06-29 16:57:00,75.0,68.8,29.66,SSE,158,18.1,18.1,81,0.00,,,0.06,VWS V13.00,2013-06-29 20:57:00,
2013-06-29 17:02:00,75.0,68.8,29.67,SSE,158,9.6,10.0,81,0.00,,,0.06,VWS V13.00,2013-06-29 21:02:00,
2013-06-29 17:07:00,74.8,68.9,29.66,SSW,202,13.4,13.4,82,0.00,,,0.06,VWS V13.00,2013-06-29 21:07:00,
2013-06-29 17:12:00,74.4,68.6,29.66,SSE,158,10.2,13.4,82,0.00,,,0.06,VWS V13.00,2013-06-29 21:12:00,
2013-06-29 17:17:00,74.4,68.9,29.67,SE,135,7.6,13.4,83,0.00,,,0.06,VWS V13.00,2013-06-29 21:17:00,
2013-06-29 17:22:00,74.1,68.6,29.67,South,180,8.2,8.2,83,0.00,,,0.06,VWS V13.00,2013-06-29 21:22:00,
2013-06-29 17:27:00,74.3,68.8,29.67,SSE,158,8.9,8.9,83,0.00,,,0.06,VWS V13.00,2013-06-29 21:27:00,
2013-06-29 17:32:00,74.3,68.8,29.67,SSE,158,7.3,9.8,83,0.00,,,0.06,VWS V13.00,2013-06-29 21:32:00,
2013-06-29 17:37:00,74.8,69.3,29.67,SE,135,5.1,9.8,83,0.00,,,0.06,VWS V13.00,2013-06-29 21:37:00,
2013-06-29 17:42:00,74.4,68.6,29.67,SSE,158,8.9,8.9,82,0.00,,,0.06,VWS V13.00,2013-06-29 21:42:00,
2013-06-29 17:47:00,74.4,68.9,29.66,SSE,158,8.7,8.9,83,0.00,,,0.06,VWS V13.00,2013-06-29 21:47:00,
2013-06-29 17:52:00,74.8,69.3,29.66,SSE,158,4.0,8.9,83,0.00,,,0.06,VWS V13.00,2013-06-29 21:52:00,
2013-06-29 17:57:00,74.8,68.9,29.66,ESE,112,5.3,8.9,82,0.00,,,0.06,VWS V13.00,2013-06-29 21:57:00,
2013-06-29 18:02:00,75.0,69.1,29.66,SSE,158,12.0,12.0,82,0.00,,,0.06,VWS V13.00,2013-06-29 22:02:00,
2013-06-29 18:07:00,75.0,69.1,29.66,South,180,5.1,12.0,82,0.00,,,0.06,VWS V13.00,2013-06-29 22:07:00,
2013-06-29 18:12:00,74.8,68.9,29.66,SSW,202,9.3,12.0,82,0.00,,,0.06,VWS V13.00,2013-06-29 22:12:00,
2013-06-29 18:17:00,74.8,68.9,29.67,SSE,158,19.6,20.3,82,0.00,,,0.06,VWS V13.00,2013-06-29 22:17:00,
2013-06-29 18:22:00,74.4,68.9,29.67,South,180,12.0,12.7,83,0.00,,,0.06,VWS V13.00,2013-06-29 22:22:00,
2013-06-29 18:27:00,74.3,68.8,29.67,SSE,158,6.9,12.7,83,0.00,,,0.06,VWS V13.00,2013-06-29 22:27:00,
2013-06-29 18:32:00,74.1,69.0,29.67,SSE,158,11.8,12.7,84,0.00,,,0.06,VWS V13.00,2013-06-29 22:32:00,
2013-06-29 18:37:00,74.1,69.0,29.67,South,180,11.1,12.7,84,0.00,,,0.06,VWS V13.00,2013-06-29 22:37:00,
2013-06-29 18:42:00,74.1,69.0,29.67,SE,135,9.3,9.3,84,0.00,,,0.06,VWS V13.00,2013-06-29 22:42:00,
2013-06-29 18:47:00,74.1,69.0,29.67,SE,135,0.8,9.3,84,0.00,,,0.06,VWS V13.00,2013-06-29 22:47:00,
2013-06-29 18:52:00,74.3,68.8,29.67,SE,135,8.2,9.3,83,0.00,,,0.06,VWS V13.00,2013-06-29 22:52:00,
2013-06-29 18:57:00,74.1,68.6,29.67,SE,135,5.8,10.5,83,0.00,,,0.06,VWS V13.00,2013-06-29 22:57:00,
2013-06-29 19:02:00,74.1,69.0,29.67,SSE,158,6.9,9.1,84,0.00,,,0.06,VWS V13.00,2013-06-29 23:02:00,
2013-06-29 19:07:00,73.9,68.8,29.67,SSE,158,4.4,11.4,84,0.00,,,0.06,VWS V13.00,2013-06-29 23:07:00,
2013-06-29 19:12:00,73.7,68.6,29.68,SSE,158,9.1,11.4,84,0.00,,,0.06,VWS V13.00,2013-06-29 23:12:00,
2013-06-29 19:17:00,73.7,68.9,29.67,South,180,8.0,13.6,85,0.00,,,0.06,VWS V13.00,2013-06-29 23:17:00,
2013-06-29 19:22:00,73.5,68.7,29.68,SSE,158,8.9,11.4,85,0.00,,,0.06,VWS V13.00,2013-06-29 23:22:00,
2013-06-29 19:27:00,73.2,68.4,29.68,SSW,202,11.8,11.8,85,0.00,,,0.06,VWS V13.00,2013-06-29 23:27:00,
2013-06-29 19:32:00,73.2,68.4,29.68,SSE,158,9.8,11.8,85,0.00,,,0.06,VWS V13.00,2013-06-29 23:32:00,
2013-06-29 19:37:00,73.0,68.2,29.68,SE,135,3.3,11.8,85,0.00,,,0.06,VWS V13.00,2013-06-29 23:37:00,
2013-06-29 19:42:00,72.6,67.8,29.68,SE,135,8.7,10.2,85,0.00,,,0.06,VWS V13.00,2013-06-29 23:42:00,
2013-06-29 19:47:00,72.6,67.8,29.69,SSE,158,7.8,10.2,85,0.00,,,0.06,VWS V13.00,2013-06-29 23:47:00,
2013-06-29 19:52:00,72.5,67.4,29.68,SSE,158,8.2,10.2,84,0.00,,,0.06,VWS V13.00,2013-06-29 23:52:00,
2013-06-29 19:57:00,72.5,67.4,29.68,SSE,158,9.1,10.2,84,0.00,,,0.06,VWS V13.00,2013-06-29 23:57:00,
2013-06-29 20:02:00,72.3,67.2,29.69,SSE,158,16.7,16.7,84,0.00,,,0.06,VWS V13.00,2013-06-30 00:02:00,
2013-06-29 20:07:00,71.9,66.8,29.69,South,180,12.7,16.7,84,0.00,,,0.06,VWS V13.00,2013-06-30 00:07:00,
2013-06-29 20:13:00,71.9,66.8,29.69,SSE,158,6.9,16.7,84,0.00,,,0.06,VWS V13.00,2013-06-30 00:13:00,
2013-06-29 20:18:00,71.9,66.8,29.68,SE,135,9.8,16.7,84,0.00,,,0.06,VWS V13.00,2013-06-30 00:18:00,
2013-06-29 20:23:00,71.7,66.6,29.69,SE,135,7.3,9.8,84,0.00,,,0.06,VWS V13.00,2013-06-30 00:23:00,
2013-06-29 20:28:00,71.4,66.3,29.70,SSE,158,8.9,9.8,84,0.00,,,0.06,VWS V13.00,2013-06-30 00:28:00,
2013-06-29 20:33:00,71.4,66.7,29.70,SSE,158,9.6,12.5,85,0.00,,,0.06,VWS V13.00,2013-06-30 00:33:00,
2013-06-29 20:38:00,71.4,66.7,29.69,SE,135,7.1,12.5,85,0.00,,,0.06,VWS V13.00,2013-06-30 00:38:00,
2013-06-29 20:43:00,71.2,66.8,29.70,SE,135,10.5,10.5,86,0.00,,,0.06,VWS V13.00,2013-06-30 00:43:00,
2013-06-29 20:48:00,71.2,66.8,29.70,SSE,158,9.3,10.5,86,0.00,,,0.06,VWS V13.00,2013-06-30 00:48:00,
2013-06-29 20:53:00,70.8,66.7,29.70,SSE,158,9.1,10.5,87,0.00,,,0.06,VWS V13.00,2013-06-30 00:53:00,
2013-06-29 20:58:00,70.8,66.7,29.70,South,180,11.8,11.8,87,0.00,,,0.06,VWS V13.00,2013-06-30 00:58:00,
2013-06-29 21:03:00,70.7,66.7,29.70,SE,135,8.7,14.0,87,0.00,,,0.06,VWS V13.00,2013-06-30 01:03:00,
2013-06-29 21:08:00,70.7,66.7,29.70,SSE,158,11.8,14.0,87,0.00,,,0.06,VWS V13.00,2013-06-30 01:08:00,
2013-06-29 21:13:00,70.5,66.4,29.70,South,180,9.3,14.0,87,0.00,,,0.06,VWS V13.00,2013-06-30 01:13:00,
2013-06-29 21:18:00,70.5,66.4,29.70,SE,135,7.6,14.0,87,0.00,,,0.06,VWS V13.00,2013-06-30 01:18:00,
2013-06-29 21:23:00,70.5,66.4,29.71,South,180,14.3,14.3,87,0.00,,,0.06,VWS V13.00,2013-06-30 01:23:00,
2013-06-29 21:28:00,70.5,66.4,29.71,South,180,11.8,14.9,87,0.00,,,0.06,VWS V13.00,2013-06-30 01:28:00,
2013-06-29 21:33:00,70.5,66.4,29.71,SSE,158,17.4,17.4,87,0.00,,,0.06,VWS V13.00,2013-06-30 01:33:00,
2013-06-29 21:38:00,70.3,66.2,29.71,SSE,158,8.7,17.4,87,0.00,,,0.06,VWS V13.00,2013-06-30 01:38:00,
2013-06-29 21:43:00,70.3,66.2,29.71,SE,135,8.2,8.2,87,0.00,,,0.06,VWS V13.00,2013-06-30 01:43:00,
2013-06-29 21:48:00,70.3,65.9,29.71,SSE,158,14.5,14.5,86,0.00,,,0.06,VWS V13.00,2013-06-30 01:48:00,
2013-06-29 21:53:00,70.3,65.9,29.71,SSE,158,9.8,14.5,86,0.00,,,0.06,VWS V13.00,2013-06-30 01:53:00,
2013-06-29 21:58:00,70.3,65.9,29.71,South,180,10.5,14.5,86,0.00,,,0.06,VWS V13.00,2013-06-30 01:58:00,
2013-06-29 22:03:00,70.3,65.9,29.72,SSE,158,11.1,11.1,86,0.00,,,0.06,VWS V13.00,2013-06-30 02:03:00,
2013-06-29 22:08:00,70.1,65.7,29.72,SE,135,6.9,11.1,86,0.00,,,0.06,VWS V13.00,2013-06-30 02:08:00,
2013-06-29 22:13:00,69.9,65.5,29.72,SSW,202,8.5,11.1,86,0.00,,,0.06,VWS V13.00,2013-06-30 02:13:00,
2013-06-29 22:18:00,69.9,65.9,29.72,SSE,158,9.3,11.1,87,0.00,,,0.06,VWS V13.00,2013-06-30 02:18:00,
2013-06-29 22:23:00,70.1,66.1,29.72,SE,135,8.5,9.3,87,0.00,,,0.06,VWS V13.00,2013-06-30 02:23:00,
2013-06-29 22:28:00,70.3,66.6,29.72,North,0,0.0,9.8,88,0.00,,,0.06,VWS V13.00,2013-06-30 02:28:00,
2013-06-29 22:33:00,70.3,66.6,29.72,SE,135,7.1,9.8,88,0.00,,,0.06,VWS V13.00,2013-06-30 02:33:00,
2013-06-29 22:38:00,70.3,66.6,29.72,SSE,158,9.1,9.8,88,0.00,,,0.06,VWS V13.00,2013-06-30 02:38:00,
2013-06-29 22:43:00,70.1,66.4,29.72,South,180,9.8,10.5,88,0.00,,,0.06,VWS V13.00,2013-06-30 02:43:00,
2013-06-29 22:48:00,70.1,66.7,29.72,SE,135,8.0,10.5,89,0.00,,,0.06,VWS V13.00,2013-06-30 02:48:00,
2013-06-29 22:53:00,70.1,66.7,29.72,SE,135,5.5,10.5,89,0.00,,,0.06,VWS V13.00,2013-06-30 02:53:00,
2013-06-29 22:58:00,70.1,67.0,29.72,SSE,158,8.9,10.5,90,0.00,,,0.06,VWS V13.00,2013-06-30 02:58:00,
2013-06-29 23:03:00,69.9,66.8,29.72,SSE,158,12.0,12.0,90,0.00,,,0.06,VWS V13.00,2013-06-30 03:03:00,
2013-06-29 23:08:00,69.9,66.8,29.72,SE,135,7.6,12.0,90,0.00,,,0.06,VWS V13.00,2013-06-30 03:08:00,
2013-06-29 23:13:00,69.9,66.8,29.72,SSW,202,9.1,12.0,90,0.00,,,0.06,VWS V13.00,2013-06-30 03:13:00,
2013-06-29 23:18:00,69.9,66.8,29.73,SE,135,7.8,12.0,90,0.00,,,0.06,VWS V13.00,2013-06-30 03:18:00,
2013-06-29 23:23:00,69.9,66.8,29.73,SSE,158,9.1,9.1,90,0.00,,,0.06,VWS V13.00,2013-06-30 03:23:00,
2013-06-29 23:28:00,69.9,66.8,29.73,SSE,158,5.3,9.1,90,0.00,,,0.06,VWS V13.00,2013-06-30 03:28:00,
2013-06-29 23:33:00,69.6,66.5,29.73,SSE,158,9.6,9.6,90,0.00,,,0.06,VWS V13.00,2013-06-30 03:33:00,
2013-06-29 23:38:00,69.6,66.9,29.73,SE,135,6.9,9.6,91,0.00,,,0.06,VWS V13.00,2013-06-30 03:38:00,
2013-06-29 23:43:00,69.6,66.9,29.73,SSE,158,9.8,9.8,91,0.00,,,0.06,VWS V13.00,2013-06-30 03:43:00,
2013-06-29 23:48:00,69.6,66.9,29.74,SSE,158,10.0,12.0,91,0.00,,,0.06,VWS V13.00,2013-06-30 03:48:00,
2013-06-29 23:53:00,69.4,66.7,29.74,SE,135,10.5,12.0,91,0.00,,,0.06,VWS V13.00,2013-06-30 03:53:00,
2013-06-29 23:58:00,69.4,66.7,29.74,SSE,158,9.1,12.0,91,0.00,,,0.06,VWS V13.00,2013-06-30 03:58:00,